Year,Month,Day,Hour,Minute,Value (Times are PST for temperature in C)
2013,09,21,00,00,13.70
2013,09,21,00,01,13.70
2013,09,21,00,02,13.70
2013,09,21,00,03,13.70
2013,09,21,00,04,13.70
2013,09,21,00,05,13.70
2013,09,21,00,06,13.70
2013,09,21,00,07,13.70
2013,09,21,00,08,13.70
2013,09,21,00,09,13.70
2013,09,21,00,10,13.70
2013,09,21,00,11,13.70
2013,09,21,00,12,13.70
2013,09,21,00,13,13.70
2013,09,21,00,14,13.70
2013,09,21,00,15,13.70
2013,09,21,00,16,13.70
2013,09,21,00,17,13.70
2013,09,21,00,18,13.70
2013,09,21,00,19,13.70
2013,09,21,00,20,13.70
2013,09,21,00,21,13.70
2013,09,21,00,22,13.70
2013,09,21,00,23,13.70
2013,09,21,00,24,13.70
2013,09,21,00,25,13.70
2013,09,21,00,26,13.70
2013,09,21,00,27,13.70
2013,09,21,00,28,13.70
2013,09,21,00,29,13.60
2013,09,21,00,30,13.70
2013,09,21,00,31,13.60
2013,09,21,00,32,13.60
2013,09,21,00,33,13.60
2013,09,21,00,34,13.60
2013,09,21,00,35,13.60
2013,09,21,00,36,13.60
2013,09,21,00,37,13.60
2013,09,21,00,38,13.60
2013,09,21,00,39,13.60
2013,09,21,00,40,13.60
2013,09,21,00,41,13.60
2013,09,21,00,42,13.60
2013,09,21,00,43,13.60
2013,09,21,00,44,13.60
2013,09,21,00,45,13.50
2013,09,21,00,46,13.50
2013,09,21,00,47,13.50
2013,09,21,00,48,13.50
2013,09,21,00,49,13.50
2013,09,21,00,50,13.50
2013,09,21,00,51,13.50
2013,09,21,00,52,13.50
2013,09,21,00,53,13.50
2013,09,21,00,54,13.50
2013,09,21,00,55,13.50
2013,09,21,00,56,13.50
2013,09,21,00,57,13.50
2013,09,21,00,58,13.50
2013,09,21,00,59,13.50
2013,09,21,01,00,13.50
2013,09,21,01,01,13.50
2013,09,21,01,02,13.50
2013,09,21,01,03,13.40
2013,09,21,01,04,13.40
2013,09,21,01,05,13.40
2013,09,21,01,06,13.40
2013,09,21,01,07,13.50
2013,09,21,01,08,13.40
2013,09,21,01,09,13.40
2013,09,21,01,10,13.40
2013,09,21,01,11,13.50
2013,09,21,01,12,13.50
2013,09,21,01,13,13.50
2013,09,21,01,14,13.50
2013,09,21,01,15,13.50
2013,09,21,01,16,13.50
2013,09,21,01,17,13.50
2013,09,21,01,18,13.50
2013,09,21,01,19,13.50
2013,09,21,01,20,13.50
2013,09,21,01,21,13.50
2013,09,21,01,22,13.50
2013,09,21,01,23,13.50
2013,09,21,01,24,13.50
2013,09,21,01,25,13.50
2013,09,21,01,26,13.50
2013,09,21,01,27,13.40
2013,09,21,01,28,13.40
2013,09,21,01,29,13.40
2013,09,21,01,30,13.40
2013,09,21,01,31,13.40
2013,09,21,01,32,13.40
2013,09,21,01,33,13.40
2013,09,21,01,34,13.40
2013,09,21,01,35,13.40
2013,09,21,01,36,13.40
2013,09,21,01,37,13.40
2013,09,21,01,38,13.40
2013,09,21,01,39,13.40
2013,09,21,01,40,13.40
2013,09,21,01,41,13.40
2013,09,21,01,42,13.40
2013,09,21,01,43,13.40
2013,09,21,01,44,13.40
2013,09,21,01,45,13.40
2013,09,21,01,46,13.40
2013,09,21,01,47,13.40
2013,09,21,01,48,13.40
2013,09,21,01,49,13.40
2013,09,21,01,50,13.40
2013,09,21,01,51,13.40
2013,09,21,01,52,13.30
2013,09,21,01,53,13.30
2013,09,21,01,54,13.30
2013,09,21,01,55,13.30
2013,09,21,01,56,13.30
2013,09,21,01,57,13.30
2013,09,21,01,58,13.30
2013,09,21,01,59,13.20
2013,09,21,02,00,13.20
2013,09,21,02,01,13.20
2013,09,21,02,02,13.20
2013,09,21,02,03,13.20
2013,09,21,02,04,13.20
2013,09,21,02,05,13.20
2013,09,21,02,06,13.20
2013,09,21,02,07,13.20
2013,09,21,02,08,13.10
2013,09,21,02,09,13.10
2013,09,21,02,10,13.10
2013,09,21,02,11,13.10
2013,09,21,02,12,13.10
2013,09,21,02,13,13.10
2013,09,21,02,14,13.10
2013,09,21,02,15,13.10
2013,09,21,02,16,13.00
2013,09,21,02,17,13.00
2013,09,21,02,18,13.00
2013,09,21,02,19,13.00
2013,09,21,02,20,13.00
2013,09,21,02,21,13.00
2013,09,21,02,22,13.00
2013,09,21,02,23,13.00
2013,09,21,02,24,13.00
2013,09,21,02,25,13.00
2013,09,21,02,26,13.00
2013,09,21,02,27,12.90
2013,09,21,02,28,12.90
2013,09,21,02,29,12.90
2013,09,21,02,30,12.90
2013,09,21,02,31,12.90
2013,09,21,02,32,12.90
2013,09,21,02,33,12.90
2013,09,21,02,34,12.90
2013,09,21,02,35,12.80
2013,09,21,02,36,12.80
2013,09,21,02,37,12.80
2013,09,21,02,38,12.80
2013,09,21,02,39,12.80
2013,09,21,02,40,12.80
2013,09,21,02,41,12.80
2013,09,21,02,42,12.80
2013,09,21,02,43,12.70
2013,09,21,02,44,12.70
2013,09,21,02,45,12.70
2013,09,21,02,46,12.70
2013,09,21,02,47,12.70
2013,09,21,02,48,12.60
2013,09,21,02,49,12.60
2013,09,21,02,50,12.60
2013,09,21,02,51,12.60
2013,09,21,02,52,12.60
2013,09,21,02,53,12.50
2013,09,21,02,54,12.50
2013,09,21,02,55,12.50
2013,09,21,02,56,12.50
2013,09,21,02,57,12.40
2013,09,21,02,58,12.40
2013,09,21,02,59,12.40
2013,09,21,03,00,12.40
2013,09,21,03,01,12.40
2013,09,21,03,02,12.30
2013,09,21,03,06,12.30
2013,09,21,03,07,12.30
2013,09,21,03,08,12.20
2013,09,21,03,09,12.20
2013,09,21,03,10,12.20
2013,09,21,03,11,12.20
2013,09,21,03,12,12.20
2013,09,21,03,13,12.10
2013,09,21,03,14,12.10
2013,09,21,03,15,12.10
2013,09,21,03,16,12.00
2013,09,21,03,17,12.00
2013,09,21,03,18,12.00
2013,09,21,03,19,11.90
2013,09,21,03,20,11.90
2013,09,21,03,21,11.90
2013,09,21,03,22,11.90
2013,09,21,03,23,12.00
2013,09,21,03,24,12.00
2013,09,21,03,25,12.00
2013,09,21,03,26,12.00
2013,09,21,03,27,12.00
2013,09,21,03,28,12.00
2013,09,21,03,29,12.00
2013,09,21,03,30,12.00
2013,09,21,03,31,12.00
2013,09,21,03,32,12.00
2013,09,21,03,33,11.90
2013,09,21,03,34,11.90
2013,09,21,03,35,11.90
2013,09,21,03,36,11.90
2013,09,21,03,37,11.80
2013,09,21,03,38,11.80
2013,09,21,03,39,11.80
2013,09,21,03,40,11.80
2013,09,21,03,41,11.80
2013,09,21,03,42,11.80
2013,09,21,03,43,11.80
2013,09,21,03,44,11.80
2013,09,21,03,45,11.80
2013,09,21,03,46,11.80
2013,09,21,03,47,11.80
2013,09,21,03,48,11.80
2013,09,21,03,49,11.80
2013,09,21,03,50,11.80
2013,09,21,03,51,11.80
2013,09,21,03,52,11.80
2013,09,21,03,53,11.80
2013,09,21,03,54,11.80
2013,09,21,03,55,11.80
2013,09,21,03,56,11.80
2013,09,21,03,57,11.80
2013,09,21,03,58,11.70
2013,09,21,03,59,11.70
2013,09,21,04,00,11.70
2013,09,21,04,01,11.70
2013,09,21,04,02,11.70
2013,09,21,04,03,11.60
2013,09,21,04,04,11.60
2013,09,21,04,05,11.60
2013,09,21,04,06,11.60
2013,09,21,04,07,11.60
2013,09,21,04,08,11.60
2013,09,21,04,09,11.60
2013,09,21,04,10,11.60
2013,09,21,04,11,11.60
2013,09,21,04,12,11.60
2013,09,21,04,13,11.60
2013,09,21,04,14,11.50
2013,09,21,04,15,11.50
2013,09,21,04,16,11.50
2013,09,21,04,17,11.50
2013,09,21,04,18,11.40
2013,09,21,04,19,11.40
2013,09,21,04,20,11.40
2013,09,21,04,21,11.40
2013,09,21,04,22,11.40
2013,09,21,04,23,11.40
2013,09,21,04,24,11.40
2013,09,21,04,25,11.30
2013,09,21,04,26,11.30
2013,09,21,04,27,11.30
2013,09,21,04,28,11.30
2013,09,21,04,29,11.30
2013,09,21,04,30,11.30
2013,09,21,04,31,11.30
2013,09,21,04,32,11.30
2013,09,21,04,33,11.30
2013,09,21,04,34,11.30
2013,09,21,04,35,11.30
2013,09,21,04,36,11.30
2013,09,21,04,37,11.30
2013,09,21,04,38,11.30
2013,09,21,04,39,11.30
2013,09,21,04,40,11.30
2013,09,21,04,41,11.30
2013,09,21,04,42,11.30
2013,09,21,04,43,11.30
2013,09,21,04,44,11.30
2013,09,21,04,45,11.30
2013,09,21,04,46,11.30
2013,09,21,04,47,11.30
2013,09,21,04,48,11.20
2013,09,21,04,49,11.20
2013,09,21,04,50,11.20
2013,09,21,04,51,11.20
2013,09,21,04,52,11.20
2013,09,21,04,53,11.20
2013,09,21,04,54,11.20
2013,09,21,04,55,11.20
2013,09,21,04,56,11.20
2013,09,21,04,57,11.20
2013,09,21,04,58,11.10
2013,09,21,04,59,11.10
2013,09,21,05,00,11.10
2013,09,21,05,01,11.10
2013,09,21,05,02,11.10
2013,09,21,05,03,11.10
2013,09,21,05,04,11.10
2013,09,21,05,05,11.10
2013,09,21,05,06,11.10
2013,09,21,05,07,11.10
2013,09,21,05,08,11.10
2013,09,21,05,09,11.10
2013,09,21,05,10,11.00
2013,09,21,05,11,11.00
2013,09,21,05,12,11.00
2013,09,21,05,13,11.00
2013,09,21,05,14,11.10
2013,09,21,05,15,11.10
2013,09,21,05,16,11.10
2013,09,21,05,17,11.10
2013,09,21,05,18,11.10
2013,09,21,05,19,11.10
2013,09,21,05,20,11.10
2013,09,21,05,21,11.10
2013,09,21,05,22,11.10
2013,09,21,05,23,11.10
2013,09,21,05,24,11.10
2013,09,21,05,25,11.00
2013,09,21,05,26,11.00
2013,09,21,05,27,11.00
2013,09,21,05,28,11.00
2013,09,21,05,29,11.00
2013,09,21,05,30,11.00
2013,09,21,05,31,11.00
2013,09,21,05,32,11.00
2013,09,21,05,33,11.00
2013,09,21,05,34,11.00
2013,09,21,05,35,11.00
2013,09,21,05,36,11.00
2013,09,21,05,37,11.00
2013,09,21,05,38,11.00
2013,09,21,05,39,10.90
2013,09,21,05,40,10.90
2013,09,21,05,41,10.90
2013,09,21,05,42,10.90
2013,09,21,05,43,10.90
2013,09,21,05,44,10.90
2013,09,21,05,45,10.90
2013,09,21,05,46,10.90
2013,09,21,05,47,10.90
2013,09,21,05,48,11.00
2013,09,21,05,49,11.00
2013,09,21,05,50,11.00
2013,09,21,05,51,11.00
2013,09,21,05,52,10.90
2013,09,21,05,53,10.90
2013,09,21,05,54,10.90
2013,09,21,05,55,11.00
2013,09,21,05,56,11.00
2013,09,21,05,57,11.00
2013,09,21,05,58,10.90
2013,09,21,05,59,10.90
2013,09,21,06,00,10.90
2013,09,21,06,01,10.90
2013,09,21,06,02,10.90
2013,09,21,06,03,10.90
2013,09,21,06,04,10.80
2013,09,21,06,05,10.80
2013,09,21,06,06,10.80
2013,09,21,06,07,10.80
2013,09,21,06,08,10.80
2013,09,21,06,09,10.80
2013,09,21,06,10,10.80
2013,09,21,06,11,10.80
2013,09,21,06,12,10.80
2013,09,21,06,13,10.80
2013,09,21,06,14,10.80
2013,09,21,06,15,10.80
2013,09,21,06,16,10.80
2013,09,21,06,17,10.80
2013,09,21,06,18,10.80
2013,09,21,06,19,10.80
2013,09,21,06,20,10.80
2013,09,21,06,21,10.80
2013,09,21,06,22,10.70
2013,09,21,06,23,10.70
2013,09,21,06,24,10.70
2013,09,21,06,25,10.70
2013,09,21,06,26,10.60
2013,09,21,06,27,10.60
2013,09,21,06,28,10.60
2013,09,21,06,29,10.60
2013,09,21,06,30,10.70
2013,09,21,06,31,10.70
2013,09,21,06,32,10.70
2013,09,21,06,33,10.70
2013,09,21,06,34,10.70
2013,09,21,06,35,10.70
2013,09,21,06,36,10.70
2013,09,21,06,37,10.70
2013,09,21,06,38,10.70
2013,09,21,06,39,10.60
2013,09,21,06,40,10.60
2013,09,21,06,41,10.60
2013,09,21,06,42,10.60
2013,09,21,06,43,10.70
2013,09,21,06,44,10.60
2013,09,21,06,45,10.60
2013,09,21,06,46,10.60
2013,09,21,06,47,10.60
2013,09,21,06,48,10.50
2013,09,21,06,49,10.50
2013,09,21,06,50,10.50
2013,09,21,06,51,10.50
2013,09,21,06,52,10.50
2013,09,21,06,53,10.50
2013,09,21,06,54,10.60
2013,09,21,06,55,10.60
2013,09,21,06,56,10.60
2013,09,21,06,57,10.60
2013,09,21,06,58,10.70
2013,09,21,06,59,10.70
2013,09,21,07,00,10.70
2013,09,21,07,01,10.70
2013,09,21,07,02,10.70
2013,09,21,07,03,10.70
2013,09,21,07,04,10.70
2013,09,21,07,05,10.70
2013,09,21,07,06,10.70
2013,09,21,07,07,10.70
2013,09,21,07,08,10.80
2013,09,21,07,09,10.80
2013,09,21,07,10,10.80
2013,09,21,07,11,10.80
2013,09,21,07,12,10.80
2013,09,21,07,13,10.80
2013,09,21,07,14,10.80
2013,09,21,07,15,10.80
2013,09,21,07,16,10.80
2013,09,21,07,17,10.80
2013,09,21,07,18,10.80
2013,09,21,07,19,10.80
2013,09,21,07,20,10.90
2013,09,21,07,21,10.90
2013,09,21,07,22,10.90
2013,09,21,07,23,10.90
2013,09,21,07,24,10.90
2013,09,21,07,25,10.90
2013,09,21,07,26,11.00
2013,09,21,07,27,11.00
2013,09,21,07,28,11.00
2013,09,21,07,29,11.10
2013,09,21,07,30,11.10
2013,09,21,07,31,11.10
2013,09,21,07,32,11.10
2013,09,21,07,33,11.10
2013,09,21,07,34,11.20
2013,09,21,07,35,11.20
2013,09,21,07,36,11.20
2013,09,21,07,37,11.20
2013,09,21,07,38,11.20
2013,09,21,07,39,11.20
2013,09,21,07,40,11.20
2013,09,21,07,41,11.20
2013,09,21,07,42,11.30
2013,09,21,07,43,11.30
2013,09,21,07,44,11.40
2013,09,21,07,45,11.40
2013,09,21,07,46,11.40
2013,09,21,07,47,11.40
2013,09,21,07,48,11.40
2013,09,21,07,49,11.40
2013,09,21,07,50,11.40
2013,09,21,07,51,11.40
2013,09,21,07,52,11.40
2013,09,21,07,53,11.40
2013,09,21,07,54,11.40
2013,09,21,07,55,11.40
2013,09,21,07,56,11.40
2013,09,21,07,57,11.40
2013,09,21,07,58,11.40
2013,09,21,07,59,11.40
2013,09,21,08,00,11.40
2013,09,21,08,01,11.40
2013,09,21,08,02,11.40
2013,09,21,08,03,11.40
2013,09,21,08,04,11.40
2013,09,21,08,05,11.40
2013,09,21,08,06,11.40
2013,09,21,08,07,11.40
2013,09,21,08,08,11.40
2013,09,21,08,09,11.40
2013,09,21,08,10,11.40
2013,09,21,08,11,11.30
2013,09,21,08,12,11.40
2013,09,21,08,13,11.30
2013,09,21,08,14,11.30
2013,09,21,08,15,11.30
2013,09,21,08,16,11.40
2013,09,21,08,17,11.40
2013,09,21,08,18,11.40
2013,09,21,08,19,11.40
2013,09,21,08,20,11.40
2013,09,21,08,21,11.40
2013,09,21,08,22,11.50
2013,09,21,08,23,11.50
2013,09,21,08,24,11.50
2013,09,21,08,25,11.60
2013,09,21,08,26,11.60
2013,09,21,08,27,11.60
2013,09,21,08,28,11.60
2013,09,21,08,29,11.60
2013,09,21,08,30,11.60
2013,09,21,08,31,11.70
2013,09,21,08,32,11.70
2013,09,21,08,33,11.70
2013,09,21,08,34,11.70
2013,09,21,08,35,11.70
2013,09,21,08,36,11.80
2013,09,21,08,37,11.80
2013,09,21,08,38,11.80
2013,09,21,08,39,11.80
2013,09,21,08,40,11.80
2013,09,21,08,41,11.80
2013,09,21,08,42,11.80
2013,09,21,08,43,11.80
2013,09,21,08,44,11.80
2013,09,21,08,45,11.80
2013,09,21,08,46,11.80
2013,09,21,08,47,11.80
2013,09,21,08,48,11.80
2013,09,21,08,49,11.80
2013,09,21,08,50,11.80
2013,09,21,08,51,11.80
2013,09,21,08,52,11.80
2013,09,21,08,53,11.80
2013,09,21,08,54,11.80
2013,09,21,08,55,11.80
2013,09,21,08,56,11.80
2013,09,21,08,57,11.90
2013,09,21,08,58,11.90
2013,09,21,08,59,11.90
2013,09,21,09,00,11.90
2013,09,21,09,01,11.90
2013,09,21,09,02,11.90
2013,09,21,09,03,11.90
2013,09,21,09,04,11.90
2013,09,21,09,05,11.90
2013,09,21,09,06,11.90
2013,09,21,09,07,11.90
2013,09,21,09,08,11.90
2013,09,21,09,09,11.90
2013,09,21,09,10,11.90
2013,09,21,09,11,11.90
2013,09,21,09,12,11.90
2013,09,21,09,13,11.90
2013,09,21,09,14,12.00
2013,09,21,09,15,12.00
2013,09,21,09,16,12.00
2013,09,21,09,17,12.00
2013,09,21,09,18,12.00
2013,09,21,09,19,12.00
2013,09,21,09,20,12.00
2013,09,21,09,21,12.00
2013,09,21,09,22,12.10
2013,09,21,09,23,12.10
2013,09,21,09,24,12.10
2013,09,21,09,25,12.10
2013,09,21,09,26,12.20
2013,09,21,09,27,12.20
2013,09,21,09,28,12.20
2013,09,21,09,29,12.10
2013,09,21,09,30,12.20
2013,09,21,09,31,12.20
2013,09,21,09,32,12.20
2013,09,21,09,33,12.20
2013,09,21,09,34,12.20
2013,09,21,09,35,12.20
2013,09,21,09,36,12.20
2013,09,21,09,37,12.20
2013,09,21,09,38,12.30
2013,09,21,09,39,12.30
2013,09,21,09,40,12.30
2013,09,21,09,41,12.30
2013,09,21,09,42,12.30
2013,09,21,09,43,12.40
2013,09,21,09,44,12.40
2013,09,21,09,45,12.40
2013,09,21,09,46,12.40
2013,09,21,09,47,12.30
2013,09,21,09,48,12.30
2013,09,21,09,49,12.30
2013,09,21,09,50,12.30
2013,09,21,09,51,12.30
2013,09,21,09,52,12.30
2013,09,21,09,53,12.30
2013,09,21,09,54,12.30
2013,09,21,09,55,12.30
2013,09,21,09,56,12.40
2013,09,21,09,57,12.40
2013,09,21,09,58,12.40
2013,09,21,09,59,12.50
2013,09,21,10,00,12.50
2013,09,21,10,01,12.60
2013,09,21,10,02,12.60
2013,09,21,10,03,12.60
2013,09,21,10,04,12.60
2013,09,21,10,05,12.60
2013,09,21,10,06,12.60
2013,09,21,10,07,12.60
2013,09,21,10,08,12.60
2013,09,21,10,09,12.60
2013,09,21,10,10,12.60
2013,09,21,10,11,12.50
2013,09,21,10,12,12.60
2013,09,21,10,13,12.60
2013,09,21,10,14,12.60
2013,09,21,10,15,12.60
2013,09,21,10,16,12.60
2013,09,21,10,17,12.60
2013,09,21,10,18,12.60
2013,09,21,10,19,12.70
2013,09,21,10,20,12.70
2013,09,21,10,21,12.70
2013,09,21,10,22,12.80
2013,09,21,10,23,12.80
2013,09,21,10,24,12.80
2013,09,21,10,25,12.90
2013,09,21,10,26,12.90
2013,09,21,10,27,13.00
2013,09,21,10,28,13.00
2013,09,21,10,29,13.10
2013,09,21,10,30,13.20
2013,09,21,10,31,13.30
2013,09,21,10,32,13.30
2013,09,21,10,33,13.40
2013,09,21,10,34,13.50
2013,09,21,10,35,13.50
2013,09,21,10,36,13.60
2013,09,21,10,37,13.70
2013,09,21,10,38,13.80
2013,09,21,10,39,13.80
2013,09,21,10,40,13.80
2013,09,21,10,41,13.80
2013,09,21,10,42,13.90
2013,09,21,10,43,14.00
2013,09,21,10,44,14.10
2013,09,21,10,45,14.10
2013,09,21,10,46,14.20
2013,09,21,10,47,14.30
2013,09,21,10,48,14.30
2013,09,21,10,49,14.30
2013,09,21,10,50,14.30
2013,09,21,10,51,14.30
2013,09,21,10,52,14.30
2013,09,21,10,53,14.30
2013,09,21,10,54,14.40
2013,09,21,10,55,14.30
2013,09,21,10,56,14.40
2013,09,21,10,57,14.40
2013,09,21,10,58,14.50
2013,09,21,10,59,14.50
2013,09,21,11,00,14.50
2013,09,21,11,01,14.50
2013,09,21,11,02,14.60
2013,09,21,11,03,14.60
2013,09,21,11,04,14.60
2013,09,21,11,05,14.60
2013,09,21,11,06,14.60
2013,09,21,11,07,14.60
2013,09,21,11,08,14.60
2013,09,21,11,09,14.60
2013,09,21,11,10,14.70
2013,09,21,11,11,14.80
2013,09,21,11,12,14.80
2013,09,21,11,13,14.80
2013,09,21,11,14,14.80
2013,09,21,11,15,14.80
2013,09,21,11,16,14.80
2013,09,21,11,17,14.90
2013,09,21,11,18,14.90
2013,09,21,11,19,14.90
2013,09,21,11,20,14.90
2013,09,21,11,21,14.90
2013,09,21,11,22,14.90
2013,09,21,11,23,15.00
2013,09,21,11,24,15.10
2013,09,21,11,25,15.10
2013,09,21,11,26,15.10
2013,09,21,11,27,15.10
2013,09,21,11,28,15.10
2013,09,21,11,29,15.20
2013,09,21,11,30,15.20
2013,09,21,11,31,15.20
2013,09,21,11,32,15.20
2013,09,21,11,33,15.20
2013,09,21,11,34,15.20
2013,09,21,11,35,15.10
2013,09,21,11,36,15.10
2013,09,21,11,37,15.20
2013,09,21,11,38,15.20
2013,09,21,11,39,15.30
2013,09,21,11,40,15.30
2013,09,21,11,41,15.40
2013,09,21,11,42,15.40
2013,09,21,11,43,15.50
2013,09,21,11,44,15.50
2013,09,21,11,45,15.50
2013,09,21,11,46,15.50
2013,09,21,11,47,15.60
2013,09,21,11,48,15.60
2013,09,21,11,49,15.60
2013,09,21,11,50,15.60
2013,09,21,11,51,15.70
2013,09,21,11,52,15.70
2013,09,21,11,53,15.70
2013,09,21,11,54,15.70
2013,09,21,11,55,15.80
2013,09,21,11,56,15.80
2013,09,21,11,57,15.80
2013,09,21,11,58,15.80
2013,09,21,11,59,15.80
2013,09,21,12,00,15.70
2013,09,21,12,01,15.70
2013,09,21,12,02,15.70
2013,09,21,12,03,15.80
2013,09,21,12,04,15.80
2013,09,21,12,05,15.80
2013,09,21,12,06,15.90
2013,09,21,12,07,16.00
2013,09,21,12,08,16.10
2013,09,21,12,09,16.10
2013,09,21,12,10,16.10
2013,09,21,12,11,16.20
2013,09,21,12,12,16.20
2013,09,21,12,13,16.30
2013,09,21,12,14,16.30
2013,09,21,12,15,16.40
2013,09,21,12,16,16.40
2013,09,21,12,17,16.50
2013,09,21,12,18,16.50
2013,09,21,12,19,16.60
2013,09,21,12,20,16.60
2013,09,21,12,21,16.70
2013,09,21,12,22,16.70
2013,09,21,12,23,16.80
2013,09,21,12,24,16.80
2013,09,21,12,25,16.80
2013,09,21,12,26,16.70
2013,09,21,12,27,16.70
2013,09,21,12,28,16.70
2013,09,21,12,29,16.70
2013,09,21,12,30,16.70
2013,09,21,12,31,16.70
2013,09,21,12,32,16.70
2013,09,21,12,33,16.70
2013,09,21,12,34,16.70
2013,09,21,12,35,16.70
2013,09,21,12,36,16.80
2013,09,21,12,37,16.80
2013,09,21,12,38,16.80
2013,09,21,12,39,16.90
2013,09,21,12,40,17.00
2013,09,21,12,41,17.10
2013,09,21,12,42,17.20
2013,09,21,12,43,17.30
2013,09,21,12,44,17.40
2013,09,21,12,45,17.30
2013,09,21,12,46,17.30
2013,09,21,12,47,17.30
2013,09,21,12,48,17.40
2013,09,21,12,49,17.40
2013,09,21,12,50,17.40
2013,09,21,12,51,17.50
2013,09,21,12,52,17.50
2013,09,21,12,53,17.60
2013,09,21,12,54,17.70
2013,09,21,12,55,17.80
2013,09,21,12,56,17.80
2013,09,21,12,57,17.80
2013,09,21,12,58,17.80
2013,09,21,12,59,17.80
2013,09,21,13,00,17.80
2013,09,21,13,01,17.90
2013,09,21,13,02,18.00
2013,09,21,13,03,18.00
2013,09,21,13,04,18.10
2013,09,21,13,05,18.20
2013,09,21,13,06,18.30
2013,09,21,13,07,18.40
2013,09,21,13,08,18.50
2013,09,21,13,09,18.60
2013,09,21,13,10,18.60
2013,09,21,13,11,18.60
2013,09,21,13,12,18.50
2013,09,21,13,13,18.40
2013,09,21,13,14,18.30
2013,09,21,13,15,18.30
2013,09,21,13,16,18.30
2013,09,21,13,17,18.40
2013,09,21,13,18,18.50
2013,09,21,13,19,18.50
2013,09,21,13,20,18.50
2013,09,21,13,21,18.40
2013,09,21,13,22,18.30
2013,09,21,13,23,18.20
2013,09,21,13,24,18.20
2013,09,21,13,25,18.30
2013,09,21,13,26,18.30
2013,09,21,13,27,18.20
2013,09,21,13,28,18.20
2013,09,21,13,29,18.20
2013,09,21,13,30,18.30
2013,09,21,13,31,18.30
2013,09,21,13,32,18.40
2013,09,21,13,33,18.50
2013,09,21,13,34,18.60
2013,09,21,13,35,18.70
2013,09,21,13,36,18.80
2013,09,21,13,37,18.80
2013,09,21,13,38,18.80
2013,09,21,13,39,18.80
2013,09,21,13,40,18.70
2013,09,21,13,41,18.60
2013,09,21,13,42,18.50
2013,09,21,13,43,18.40
2013,09,21,13,44,18.40
2013,09,21,13,45,18.50
2013,09,21,13,46,18.60
2013,09,21,13,47,18.70
2013,09,21,13,48,18.70
2013,09,21,13,49,18.60
2013,09,21,13,50,18.60
2013,09,21,13,51,18.60
2013,09,21,13,52,18.60
2013,09,21,13,53,18.60
2013,09,21,13,54,18.50
2013,09,21,13,55,18.40
2013,09,21,13,56,18.30
2013,09,21,13,57,18.30
2013,09,21,13,58,18.20
2013,09,21,13,59,18.10
2013,09,21,14,00,18.10
2013,09,21,14,01,18.10
2013,09,21,14,02,18.10
2013,09,21,14,03,18.20
2013,09,21,14,04,18.20
2013,09,21,14,05,18.20
2013,09,21,14,06,18.30
2013,09,21,14,07,18.30
2013,09,21,14,08,18.30
2013,09,21,14,09,18.20
2013,09,21,14,10,18.10
2013,09,21,14,11,18.10
2013,09,21,14,12,18.10
2013,09,21,14,13,18.10
2013,09,21,14,14,18.10
2013,09,21,14,15,18.10
2013,09,21,14,16,18.10
2013,09,21,14,17,18.00
2013,09,21,14,18,18.10
2013,09,21,14,19,18.10
2013,09,21,14,20,18.20
2013,09,21,14,21,18.20
2013,09,21,14,22,18.20
2013,09,21,14,23,18.10
2013,09,21,14,24,18.10
2013,09,21,14,25,18.10
2013,09,21,14,26,18.10
2013,09,21,14,27,18.00
2013,09,21,14,28,17.90
2013,09,21,14,29,17.90
2013,09,21,14,30,17.90
2013,09,21,14,31,17.90
2013,09,21,14,32,18.00
2013,09,21,14,33,18.00
2013,09,21,14,34,17.90
2013,09,21,14,35,17.90
2013,09,21,14,36,17.90
2013,09,21,14,37,17.90
2013,09,21,14,38,17.90
2013,09,21,14,39,18.00
2013,09,21,14,40,18.10
2013,09,21,14,41,18.10
2013,09,21,14,42,18.10
2013,09,21,14,43,18.10
2013,09,21,14,44,18.10
2013,09,21,14,45,18.10
2013,09,21,14,46,18.10
2013,09,21,14,47,18.10
2013,09,21,14,48,18.10
2013,09,21,14,49,18.20
2013,09,21,14,50,18.30
2013,09,21,14,51,18.40
2013,09,21,14,52,18.50
2013,09,21,14,53,18.60
2013,09,21,14,54,18.70
2013,09,21,14,55,18.70
2013,09,21,14,56,18.70
2013,09,21,14,57,18.70
2013,09,21,14,58,18.60
2013,09,21,14,59,18.60
2013,09,21,15,00,18.60
2013,09,21,15,01,18.50
2013,09,21,15,02,18.60
2013,09,21,15,03,18.60
2013,09,21,15,04,18.70
2013,09,21,15,05,18.70
2013,09,21,15,06,18.70
2013,09,21,15,07,18.70
2013,09,21,15,08,18.70
2013,09,21,15,09,18.70
2013,09,21,15,10,18.70
2013,09,21,15,11,18.70
2013,09,21,15,12,18.70
2013,09,21,15,13,18.70
2013,09,21,15,14,18.60
2013,09,21,15,15,18.60
2013,09,21,15,16,18.60
2013,09,21,15,17,18.60
2013,09,21,15,18,18.60
2013,09,21,15,19,18.70
2013,09,21,15,20,18.70
2013,09,21,15,21,18.70
2013,09,21,15,22,18.70
2013,09,21,15,23,18.80
2013,09,21,15,24,18.80
2013,09,21,15,25,18.80
2013,09,21,15,26,18.70
2013,09,21,15,27,18.70
2013,09,21,15,28,18.70
2013,09,21,15,29,18.80
2013,09,21,15,30,18.80
2013,09,21,15,31,18.80
2013,09,21,15,32,18.80
2013,09,21,15,33,18.80
2013,09,21,15,34,18.80
2013,09,21,15,35,18.80
2013,09,21,15,36,18.80
2013,09,21,15,37,18.70
2013,09,21,15,38,18.70
2013,09,21,15,39,18.70
2013,09,21,15,40,18.70
2013,09,21,15,41,18.70
2013,09,21,15,42,18.70
2013,09,21,15,43,18.70
2013,09,21,15,44,18.70
2013,09,21,15,45,18.70
2013,09,21,15,46,18.70
2013,09,21,15,47,18.80
2013,09,21,15,48,18.80
2013,09,21,15,49,18.70
2013,09,21,15,50,18.70
2013,09,21,15,51,18.80
2013,09,21,15,52,18.70
2013,09,21,15,53,18.70
2013,09,21,15,54,18.70
2013,09,21,15,55,18.80
2013,09,21,15,56,18.80
2013,09,21,15,57,18.90
2013,09,21,15,58,18.90
2013,09,21,15,59,18.90
2013,09,21,16,00,18.90
2013,09,21,16,01,18.90
2013,09,21,16,02,18.90
2013,09,21,16,03,18.80
2013,09,21,16,04,18.80
2013,09,21,16,05,18.80
2013,09,21,16,06,18.80
2013,09,21,16,07,18.80
2013,09,21,16,08,18.80
2013,09,21,16,09,18.70
2013,09,21,16,10,18.70
2013,09,21,16,11,18.60
2013,09,21,16,12,18.60
2013,09,21,16,13,18.60
2013,09,21,16,14,18.50
2013,09,21,16,15,18.50
2013,09,21,16,16,18.50
2013,09,21,16,17,18.50
2013,09,21,16,18,18.50
2013,09,21,16,19,18.60
2013,09,21,16,20,18.60
2013,09,21,16,21,18.60
2013,09,21,16,22,18.60
2013,09,21,16,23,18.50
2013,09,21,16,24,18.60
2013,09,21,16,25,18.60
2013,09,21,16,26,18.50
2013,09,21,16,27,18.50
2013,09,21,16,28,18.40
2013,09,21,16,29,18.50
2013,09,21,16,30,18.50
2013,09,21,16,31,18.50
2013,09,21,16,32,18.60
2013,09,21,16,33,18.60
2013,09,21,16,34,18.60
2013,09,21,16,35,18.60
2013,09,21,16,36,18.50
2013,09,21,16,37,18.50
2013,09,21,16,38,18.40
2013,09,21,16,39,18.30
2013,09,21,16,40,18.30
2013,09,21,16,41,18.20
2013,09,21,16,42,18.10
2013,09,21,16,43,18.10
2013,09,21,16,44,18.00
2013,09,21,16,45,18.00
2013,09,21,16,46,18.00
2013,09,21,16,47,18.00
2013,09,21,16,48,18.10
2013,09,21,16,49,18.20
2013,09,21,16,50,18.30
2013,09,21,16,51,18.40
2013,09,21,16,52,18.40
2013,09,21,16,53,18.40
2013,09,21,16,54,18.50
2013,09,21,16,55,18.40
2013,09,21,16,56,18.40
2013,09,21,16,57,18.40
2013,09,21,16,58,18.40
2013,09,21,16,59,18.30
2013,09,21,17,00,18.30
2013,09,21,17,01,18.30
2013,09,21,17,02,18.30
2013,09,21,17,03,18.30
2013,09,21,17,04,18.30
2013,09,21,17,05,18.30
2013,09,21,17,06,18.30
2013,09,21,17,07,18.30
2013,09,21,17,08,18.30
2013,09,21,17,09,18.40
2013,09,21,17,10,18.40
2013,09,21,17,11,18.50
2013,09,21,17,12,18.50
2013,09,21,17,13,18.60
2013,09,21,17,14,18.60
2013,09,21,17,15,18.70
2013,09,21,17,16,18.70
2013,09,21,17,17,18.70
2013,09,21,17,18,18.80
2013,09,21,17,19,18.80
2013,09,21,17,20,18.70
2013,09,21,17,21,18.60
2013,09,21,17,22,18.50